www.pogodaiklimat.ru

АРХИВ ПОГОДЫ в Грин-Бее

Время (UTC), дата Ветер
(напр.,м/с)
 
Видим.   Явления Облачность Т
(С)
Тd
(С)
f
(%)
Тe
(С)
Тes
(С)
Комфортность

P
(гПа)

Po
(гПа)
Тmin
(С)
Tmax
(С)
R
(мм)
SD
(см)
11:53 14.07 Ю  16 км    ясно  +20.0  +13.3  65  +22  +24  комфорт  1021.6  996.6         
12:53 14.07 ЮВ  16 км    ясно  +22.8  +11.7  50  +25  +28  комфорт  1021.6  996.6         
13:53 14.07 Ю  16 км    ясно  +23.9  +12.8  50  +26  +31  жарко  1021.1  995.9         
14:53 14.07 ЮВ  16 км    ясно  +25.6  +13.9  48  +28  +36  жарко  1021.1  995.9         
15:53 14.07 Ю  16 км    ясно  +26.7  +14.4  47  +29  +41  жарко  1020.6  995.6         
16:53 14.07   16 км    ясно  +27.2  +14.4  45  +29  +54  опасность
солнечного
удара 
1020.1  994.9  +18.3  +27.8     
17:53 14.07 В  16 км    ясно  +28.3  +15.0  44  +31  +45  душно  1019.5  994.3         
18:53 14.07 Ю  16 км    ясно  +28.9  +16.1  46  +32  +45  душно  1019.1  993.9         
19:53 14.07 ЮЗ  16 км    ясно  +29.4  +16.7  46  +33  +42  душно  1018.7  993.6         
20:53 14.07     16 км    ясно  +29.4  +17.2  48  +33  +49  душно  1017.9  992.9         
21:53 14.07 ЮВ  16 км    ясно  +27.8  +17.2  52  +32  +34  душно  1017.8  992.6         
22:53 14.07 ЮВ  16 км    ясно  +26.7  +16.1  52  +30  +31  душно  1017.5  992.3  +26.7  +29.4     
23:53 14.07 ЮВ  16 км    ясно  +25.0  +16.1  58  +28  +29  жарко  1017.6  992.6         
00:53 15.07 ЮВ  16 км    ясно  +22.8  +14.4  59  +26  +26  жарко  1017.5  992.6         
01:53 15.07 ЮВ  16 км    ясно  +21.7  +14.4  63  +25  +25  комфорт  1018.2  993.3         
02:53 15.07 Ю  16 км    8/0 3600 м
[средняя] 
+21.7  +13.9  61  +25  +25  комфорт  1017.7  992.6         
03:53 15.07 Ю  16 км    5/0 3600 м
[средняя] 
+21.7  +12.8  57  +24  +24  комфорт  1017.1  992.3         
04:53 15.07 Ю  16 км    ясно  +21.1  +13.3  61  +23  +23  комфорт  1016.7  992.0  +21.1  +26.7     
05:53 15.07 Ю  16 км    ясно  +21.1  +13.9  63  +24  +24  комфорт  1015.6  990.6         
06:53 15.07 Ю  16 км    ясно  +21.7  +13.9  61  +25  +25  комфорт  1015.5  990.6         
07:53 15.07 Ю  16 км    8/5 1650 м
[средняя] 
+21.7  +14.4  63  +25  +25  комфорт  1014.7  990.0         
08:53 15.07   16 км    8/8 1500 м
[средняя] 
+21.7  +15.0  66  +25  +25  комфорт  1015.1  990.3         
09:53 15.07 СВ  16 км    5/5 1470 м
[средняя] 
+20.0  +16.7  81  +22  +22  комфорт  1016.1  991.0         
10:53 15.07 СВ  16 км    2/2 1800 м  +21.1  +18.3  84  +25  +25  комфорт  1016.5  991.6  +20.0  +22.2     
11:40 15.07 ЮВ  16 км  гроза  5/5 1650 м  +21.1  +17.2  78  +25  +26  комфорт    991.6         
11:53 15.07 В  16 км    8/8 1650 м  +21.1  +17.2  78  +25  +25  комфорт  1016.6  991.6         
12:53 15.07 В  16 км  слабый дождь  8/2 1950 м
[средняя] 
+21.1  +17.8  81  +25  +26  комфорт  1016.3  991.3         
13:53 15.07 В  16 км    ясно  +22.8  +18.3  76  +28  +34  душно  1015.7  990.6         
14:53 15.07 ЮВ  16 км    ясно  +24.4  +19.4  74  +30  +38  очень
душно 
1014.7  989.6         
15:53 15.07 Ю  16 км    ясно  +28.3  +22.2  70  +37  +47  очень
душно 
1013.8  989.0         
16:53 15.07 Ю  6
{9} 
16 км    2/2 1650 м  +30.0  +22.2  63  +39  +43  очень
душно 
1013.1  988.3  +21.1  +30.0     
17:53 15.07 Ю  7
{10} 
16 км    5/5 960 м  +31.1  +23.9  66  +43  +45  опасность
перегрева 
1012.5  987.7         
18:53 15.07 ЮЗ  6
{11} 
16 км    8/5 1140 м
[средняя] 
+30.6  +23.3  65  +41  +42  опасность
перегрева 
1011.7  987.0         
19:53 15.07 ЮЗ  7
{13} 
16 км    5/5 1290 м  +31.1  +22.2  59  +40  +41  очень
душно 
1011.0  986.3         
20:53 15.07 ЮЗ  6
{11} 
16 км    2/2 1320 м  +30.0  +21.7  61  +38  +41  очень
душно 
1011.1  986.3         
21:53 15.07 ЮЗ  16 км    2/2 1650 м
[средняя] 
+29.4  +22.2  65  +38  +43  очень
душно 
1011.8  987.0         
22:53 15.07 ЮЗ  4
{8} 
16 км    ясно  +29.4  +20.0  57  +36  +38  очень
душно 
1010.8  986.0  +28.9  +31.7     
23:53 15.07 ЮЗ  16 км    ясно  +28.9  +20.0  59  +35  +36  очень
душно 
1011.0  986.3         
00:53 16.07 ЮЗ  16 км    ясно  +27.8  +19.4  60  +33  +33  очень
душно 
1011.5  986.7         
01:53 16.07 ЮЗ  16 км    ясно  +27.8  +20.0  63  +34  +34  очень
душно 
1011.8  987.0         
02:53 16.07 ЮЗ  16 км  слабый дождь  8/0 3600 м
[средняя] 
+27.2  +20.6  67  +34  +34  очень
душно 
1012.1  987.3         
03:53 16.07 ЮЗ  10
{15} 
16 км    5/5 1110 м  +27.2  +20.0  65  +33  +33  очень
душно 
1012.3  987.7         
04:09 16.07 З  9
{13} 
16 км    2/2 1020 м  +23.3  +18.3  73  +29  +29  душно    988.0         
04:53 16.07 З  8 км  сильный дождь, дымка  10/2 1500 м
[средняя] 
+21.1  +19.4  90  +26  +26  душно  1012.2  987.3  +21.1  +29.4  2.0   
05:53 16.07 ЮЗ  16 км  слабый дождь  2/0 3300 м
[средняя] 
+22.2  +18.9  82  +28  +28  душно  1010.2  985.7         
06:53 16.07 ЮВ  16 км    ясно  +21.7  +20.0  90  +27  +27  душно  1008.6  984.0         
07:53 16.07   16 км    ясно  +21.7  +20.0  90  +27  +27  душно  1009.7  985.0      0.5   
08:53 16.07 ЮЗ  16 км    ясно  +21.7  +20.0  90  +27  +27  душно  1010.6  986.0         

 

Местоположение метеостанции Austin Straubel International Airport: широта 44.4794 долгота -88.1367 высота над уровнем моря 211 м.

В архиве по умолчанию представлена погода в Грин-Бее за последние 1-2 суток. Обновление информации о фактической погоде в базе происходит ежечасно! Архивные данные за месяц целиком и за предыдущие месяцы Вы можете получить, выбрав интересующий диапазон дат из раскрывающегося списка и нажав кнопку "Ввод!".

Внимание! Архив погоды МЕТАР в базе сайта в настоящее время начинается c 1 января 2011 г. Нет смысла пытаться выбрать более раннюю дату.

Внимание! Время в таблицах - всемирное. Для получения местного времени необходимо прибавить поправку, которая в Грин-Бее равна -6 ч.

Ветер - указаны скорость ветра в м/с и направление, откуда дует ветер: С - северный, СВ - северо-восточный, В - восточный, ЮВ - юго-восточный, Ю - южный, ЮЗ - юго-западный, З - западный, СЗ - северо-западный.
Видимость - горизонтальная дальность видимости в метрах или километрах. При видимости от 1 до 10 км при отсутствии осадков обычно наблюдается дымка, при ухудшении видимости до 1 км и менее - туман. В сухую погоду видимость может ухудшаться дымом, пылью или мглою.
Атмосферные явления - указаны явления, наблюдавшиеся в указанный момент времени.
Облачность - указаны через наклонную черту верхняя и нижняя облачность в баллах и высота нижней границы облаков в метрах. Внимание: облачность, как и прочие метеорологические величины в США измеряются автоматическими метеостанциями. Указанные значения в баллах носят условный характер и показывают процент времени, в течение которого, в среднем, лазерный луч высотомера отражался от облаков обратно.
T - Температура воздуха - температура, измеренная на высоте 2 м над землей.
Td - Температура точки росы - температура, при понижении до которой содержащийся в воздухе водяной пар достигнет насыщения.
f - Относительная влажность воздуха - влажноcть воздуха, измеренная на высоте 2 м над землей.
Te - Эффективная температура - температура, которую ощущает одетый по сезону человек в тени. Характеристика душности погоды. При расчете учитывается влияние влажности воздуха и скорости ветра на теплоощущения человека.
Tes - Эффективная температура на солнце - температура, которую ощущает человек, с поправкой на солнечный нагрев. Характеристика знойности погоды. Зависит от высоты солнца над горизонтом, облачности и скорости ветра. Ночью, в пасмурную погоду, а также при ветре 12 м/с и более поправка равна нулю.
P - Атмосферное давление - приведенное к уровню моря атмосферное давление.
Po - Атмосферное давление - измеренное на уровне метеостанции атмосферное давление.
Tmin - Минимальная температура - минимум температуры воздуха на высоте 2 м над землей.
Tmax - Максимальная температура - максимум температуры воздуха на высоте 2 м над землей.
R - Количество осадков - Количество выпавших осадков за 3 или 6 часов, мм.
SD - Снежный покров - Высота снежного покрова, см.